Location: Austin
(30.3000°N, 97.7500°W)
Time: 22:36:32
(UTC-05:00)

UNK - Visible Passes

Search period start: 17 May 2026 00:00
Search period end: 27 May 2026 00:00
Orbit: 653 x 673 km, 98.4° (Epoch: 17 May)

Date Brightness Start Highest point End Pass type
(mag) Time Alt. Az. Time Alt. Az. Time Alt. Az.
18 May 6.9 05:17:04 10° E 05:19:17 14° ENE 05:21:31 10° NE visible
19 May 5.9 05:45:34 10° SE 05:49:29 29° ENE 05:53:23 10° NNE visible
21 May 7.1 05:12:18 10° E 05:13:48 11° ENE 05:15:18 10° NE visible
22 May 6.2 05:40:16 10° SE 05:43:57 25° ENE 05:47:39 10° NNE visible
25 May 6.5 05:35:01 10° ESE 05:38:26 22° ENE 05:41:51 10° NNE visible
